La Grange, TX

6:34 PM CDT on June 26, 2017 (GMT -0500)
La Grange

Weather History for K3T5 - January, 2014

Change the Weather History Date:

Tuesday, January 28, 2014

  Actual Average (KAUS) Record (KAUS)
Temperature  
Mean Temperature 33 °F -  
Max Temperature 37 °F 61 °F 80 °F (2015)
Min Temperature 29 °F 39 °F 18 °F (1948)
Degree Days  
Heating Degree Days 32    
Moisture  
Dew Point 16 °F    
Average Humidity 50    
Maximum Humidity 80    
Minimum Humidity 34    
Precipitation  
Precipitation 0.00 in - - ()
Sea Level Pressure  
Sea Level Pressure 30.33 in    
Wind  
Wind Speed 11 mph (North)    
Max Wind Speed 18 mph    
Max Gust Speed 26 mph    
Visibility 10 miles    
Events      
Averages and records for this station are not official NWS values.
T = Trace of Precipitation, MM = Missing Value Source: NWS Daily Summary

Daily Weather History Graph

Daily Weather History Graph

Search for Another Location

Airport or City:

Trip Planner

Search our weather history database for the weather conditions in past years. The results will help you decide how hot, cold, wet, or windy it might be!

Date:

Astronomy

Jan. 28, 2014 Rise Set
Actual Time 7:20 AM CST 6:01 PM CST
Civil Twilight 6:54 AM CST 6:27 PM CST
Nautical Twilight 6:26 AM CST 6:55 PM CST
Astronomical Twilight 5:57 AM CST 7:24 PM CST
Moon 5:00 AM CST (1/28) 3:55 PM CST (1/28)
Length of Visible Light 11h 32m
Length of Day
10h 41m
Waning Crescent, 7% of the Moon is Illuminated
Jan 28
Waning Crescent
Jan 30
New
Feb 6
First Quarter
Feb 14
Full
Feb 22
Last Quarter

Hourly Weather History & Observations

Time (CST) Temp. Windchill Dew Point Humidity Pressure Visibility Wind Dir Wind Speed Gust Speed Precip Events Conditions
12:15 AM 37.6 °F 30.0 °F 13.8 °F 38% 30.20 in 10.0 mi North 11.5 mph 18.4 mph N/A   Mostly Cloudy
12:35 AM 37.4 °F 29.8 °F 14.0 °F 38% 30.19 in 10.0 mi North 11.5 mph 17.3 mph N/A   Mostly Cloudy
12:55 AM 37.0 °F 28.9 °F 14.0 °F 39% 30.19 in 10.0 mi North 12.7 mph 18.4 mph N/A   Scattered Clouds
1:15 AM 36.5 °F 27.4 °F 16.0 °F 43% 30.19 in 10.0 mi North 15.0 mph 20.7 mph N/A   Overcast
1:35 AM 35.6 °F 27.5 °F 15.8 °F 44% 30.19 in 10.0 mi North 11.5 mph 18.4 mph N/A   Overcast
1:55 AM 35.1 °F 25.9 °F 16.3 °F 47% 30.19 in 10.0 mi North 13.8 mph 23.0 mph N/A   Overcast
2:15 AM 34.7 °F 24.7 °F 17.1 °F 49% 30.20 in 10.0 mi North 16.1 mph 23.0 mph N/A   Overcast
2:35 AM 34.2 °F 25.2 °F 17.4 °F 50% 30.20 in 10.0 mi North 12.7 mph 19.6 mph N/A   Overcast
2:55 AM 33.8 °F 26.4 °F 16.7 °F 50% 30.21 in 10.0 mi North 9.2 mph 16.1 mph N/A   Overcast
3:15 AM 33.6 °F 25.0 °F 18.1 °F 53% 30.22 in 10.0 mi North 11.5 mph 20.7 mph N/A   Overcast
3:35 AM 33.1 °F 23.4 °F 18.1 °F 54% 30.22 in 10.0 mi North 13.8 mph 21.9 mph N/A   Overcast
3:55 AM 32.9 °F 23.7 °F 18.3 °F 55% 30.23 in 10.0 mi North 12.7 mph 18.4 mph N/A   Overcast
4:15 AM 32.5 °F 21.2 °F 18.3 °F 56% 30.23 in 10.0 mi North 18.4 mph 26.5 mph N/A   Overcast
4:35 AM 32.0 °F 24.8 °F 18.9 °F 58% 30.23 in 10.0 mi North 8.1 mph 18.4 mph N/A   Overcast
4:55 AM 32.0 °F 22.5 °F 18.5 °F 58% 30.23 in 10.0 mi North 12.7 mph 19.6 mph N/A   Overcast
5:15 AM 32.0 °F 23.0 °F 18.3 °F 57% 30.23 in 10.0 mi North 11.5 mph 18.4 mph N/A   Overcast
5:35 AM 31.8 °F 22.8 °F 17.6 °F 56% 30.25 in 10.0 mi North 11.5 mph 23.0 mph N/A   Overcast
5:55 AM 31.5 °F 22.3 °F 17.2 °F 56% 30.26 in 10.0 mi North 11.5 mph 20.7 mph N/A   Overcast
6:15 AM 31.5 °F 21.8 °F 15.8 °F 52% 30.28 in 10.0 mi North 12.7 mph 18.4 mph N/A   Overcast
6:35 AM 31.3 °F 23.3 °F 14.7 °F 50% 30.29 in 10.0 mi North 9.2 mph 17.3 mph N/A   Overcast
6:55 AM 31.6 °F 23.1 °F 14.9 °F 50% 30.30 in 10.0 mi North 10.4 mph 16.1 mph N/A   Overcast
7:15 AM 31.6 °F 25.1 °F 15.6 °F 52% 30.30 in 10.0 mi North 6.9 mph 18.4 mph N/A   Overcast
7:35 AM 30.2 °F 20.2 °F 19.2 °F 64% 30.31 in 10.0 mi North 12.7 mph 18.4 mph N/A   Overcast
7:55 AM 30.4 °F 21.5 °F 20.8 °F 68% 30.33 in 10.0 mi North 10.4 mph 16.1 mph N/A   Overcast
8:15 AM 30.2 °F 21.9 °F 21.4 °F 70% 30.34 in 10.0 mi North 9.2 mph - N/A   Overcast
8:35 AM 29.8 °F 22.2 °F 22.1 °F 73% 30.34 in 10.0 mi North 8.1 mph 16.1 mph N/A   Mostly Cloudy
8:55 AM 29.7 °F 19.6 °F 23.7 °F 79% 30.35 in 10.0 mi North 12.7 mph - N/A   Clear
9:15 AM 29.1 °F 20.6 °F 23.5 °F 80% 30.36 in 10.0 mi North 9.2 mph 17.3 mph N/A   Clear
9:35 AM 29.3 °F 20.8 °F 23.2 °F 78% 30.38 in 10.0 mi North 9.2 mph - N/A   Clear
9:55 AM 29.3 °F 19.6 °F 22.1 °F 75% 30.39 in 10.0 mi North 11.5 mph 21.9 mph N/A   Scattered Clouds
10:15 AM 29.7 °F 19.6 °F 21.4 °F 71% 30.39 in 10.0 mi North 12.7 mph 19.6 mph N/A   Clear
10:35 AM 30.2 °F 21.9 °F 21.0 °F 69% 30.41 in 10.0 mi North 9.2 mph - N/A   Scattered Clouds
10:55 AM 30.6 °F 20.7 °F 19.8 °F 64% 30.42 in 10.0 mi North 12.7 mph 18.4 mph N/A   Mostly Cloudy
11:15 AM 31.1 °F 20.9 °F 18.1 °F 59% 30.40 in 10.0 mi North 13.8 mph 20.7 mph N/A   Mostly Cloudy
11:35 AM 32.0 °F 22.1 °F 17.8 °F 56% 30.39 in 10.0 mi North 13.8 mph 20.7 mph N/A   Scattered Clouds
11:55 AM 32.0 °F 23.0 °F 17.1 °F 54% 30.38 in 10.0 mi North 11.5 mph 20.7 mph N/A   Clear
12:15 PM 32.7 °F 23.9 °F 16.9 °F 52% 30.37 in 10.0 mi North 11.5 mph 18.4 mph N/A   Clear
12:35 PM 32.5 °F 24.2 °F 15.8 °F 50% 30.37 in 10.0 mi North 10.4 mph 20.7 mph N/A   Clear
12:55 PM 32.9 °F 25.3 °F 16.2 °F 50% 30.37 in 10.0 mi North 9.2 mph 20.7 mph N/A   Clear
1:15 PM 32.0 °F 21.6 °F 14.9 °F 49% 30.36 in 10.0 mi North 15.0 mph 23.0 mph N/A   Clear
1:35 PM 32.4 °F 22.5 °F 14.4 °F 48% 30.35 in 10.0 mi North 13.8 mph 19.6 mph N/A   Clear
1:55 PM 32.4 °F 23.5 °F 14.9 °F 49% 30.34 in 10.0 mi North 11.5 mph 17.3 mph N/A   Clear
2:15 PM 33.3 °F 25.7 °F 14.9 °F 47% 30.35 in 10.0 mi North 9.2 mph 18.4 mph N/A   Clear
2:35 PM 33.4 °F 24.3 °F 14.7 °F 46% 30.35 in 10.0 mi North 12.7 mph 18.4 mph N/A   Clear
2:55 PM 33.8 °F 27.0 °F 14.7 °F 46% 30.35 in 10.0 mi North 8.1 mph - N/A   Clear
3:15 PM 34.3 °F 26.5 °F 14.5 °F 44% 30.36 in 10.0 mi North 10.4 mph 16.1 mph N/A   Scattered Clouds
3:35 PM 34.9 °F 28.3 °F 15.8 °F 46% 30.35 in 10.0 mi North 8.1 mph - N/A   Clear
3:55 PM 35.8 °F 28.8 °F 15.6 °F 44% 30.35 in 10.0 mi North 9.2 mph - N/A   Clear
4:15 PM 36.3 °F 29.5 °F 14.2 °F 40% 30.34 in 10.0 mi North 9.2 mph - N/A   Clear
4:35 PM 36.9 °F 29.1 °F 14.4 °F 40% 30.35 in 10.0 mi North 11.5 mph 16.1 mph N/A   Clear
4:55 PM 37.4 °F 30.8 °F 13.3 °F 37% 30.35 in 10.0 mi North 9.2 mph - N/A   Clear
5:15 PM 37.8 °F 32.5 °F 13.8 °F 38% 30.36 in 10.0 mi North 6.9 mph - N/A   Clear
5:35 PM 37.8 °F 30.2 °F 13.5 °F 37% 30.36 in 10.0 mi North 11.5 mph 16.1 mph N/A   Clear
5:55 PM 37.6 °F 30.5 °F 13.1 °F 37% 30.36 in 10.0 mi North 10.4 mph - N/A   Clear
6:15 PM 37.6 °F 31.6 °F 12.6 °F 36% 30.37 in 10.0 mi North 8.1 mph - N/A   Clear
6:35 PM 37.6 °F 31.6 °F 12.9 °F 36% 30.37 in 10.0 mi North 8.1 mph - N/A   Clear
6:55 PM 37.6 °F 32.3 °F 12.4 °F 36% 30.37 in 10.0 mi North 6.9 mph - N/A   Clear
7:15 PM 37.4 °F 30.8 °F 11.3 °F 34% 30.37 in 10.0 mi North 9.2 mph 17.3 mph N/A   Clear
7:35 PM 37.4 °F 30.3 °F 11.1 °F 34% 30.37 in 10.0 mi North 10.4 mph 16.1 mph N/A   Clear
7:55 PM 36.9 °F 29.6 °F 11.5 °F 35% 30.38 in 10.0 mi North 10.4 mph 17.3 mph N/A   Clear
8:15 PM 36.7 °F 29.9 °F 12.0 °F 36% 30.38 in 10.0 mi North 9.2 mph - N/A   Clear
8:35 PM 36.7 °F 30.5 °F 12.4 °F 37% 30.39 in 10.0 mi North 8.1 mph - N/A   Clear
8:55 PM 36.5 °F 29.2 °F 12.6 °F 37% 30.40 in 10.0 mi North 10.4 mph 16.1 mph N/A   Clear
9:15 PM 36.5 °F 30.3 °F 13.3 °F 39% 30.42 in 10.0 mi North 8.1 mph - N/A   Clear
9:35 PM 36.3 °F 29.5 °F 13.8 °F 40% 30.43 in 10.0 mi North 9.2 mph - N/A   Clear
9:55 PM 36.1 °F 31.4 °F 14.2 °F 41% 30.44 in 10.0 mi North 5.8 mph - N/A   Clear
10:15 PM 35.6 °F 29.2 °F 14.4 °F 42% 30.44 in 10.0 mi North 8.1 mph - N/A   Clear
10:35 PM 35.2 °F 30.3 °F 14.9 °F 43% 30.44 in 10.0 mi North 5.8 mph - N/A   Clear
10:55 PM 34.7 °F 30.6 °F 15.4 °F 45% 30.44 in 10.0 mi North 4.6 mph - N/A   Clear
11:15 PM 34.7 °F 30.6 °F 15.8 °F 46% 30.44 in 10.0 mi North 4.6 mph - N/A   Clear
11:35 PM 34.2 °F 29.0 °F 16.0 °F 47% 30.44 in 10.0 mi North 5.8 mph - N/A   Clear
11:55 PM 33.8 °F 28.6 °F 16.3 °F 49% 30.43 in 10.0 mi North 5.8 mph - N/A   Clear